Total_Precipitation_Accumulation
0.29 0.64 0.90 0.79 0.73 0.75 0.71 0.68 0.69 0.59 0.54 0.55 0.50 0.44 0.45 0.44 0.44 0.38 0.37 0.39 0.34 0.30 0.34 0.32 0.28 0.31 0.34 0.43 0.54 0.72 1.08 1.49 1.67 1.57 1.51 1.57 1.67 1.65 1.55 1.53 1.50 1.55 1.55 1.55
0.35 0.45 0.37 0.41 0.46 0.57 0.67 0.71 0.71 0.61 0.45 0.43 0.42 0.37 0.35 0.34 0.37 0.33 0.31 0.33 0.32 0.29 0.26 0.24 0.20 0.23 0.28 0.45 0.59 0.72 1.01 1.45 1.64 1.75 1.86 2.07 2.25 2.14 2.00 1.98 1.93 2.01 2.03 2.19
0.31 0.27 0.22 0.33 0.49 0.60 0.65 0.67 0.64 0.57 0.43 0.36 0.35 0.36 0.30 0.30 0.30 0.29 0.27 0.28 0.27 0.23 0.22 0.22 0.20 0.22 0.27 0.38 0.50 0.64 0.83 1.11 1.45 1.73 2.00 2.28 2.50 2.49 2.37 2.21 2.17 2.23 2.30 2.46
0.31 0.26 0.25 0.32 0.40 0.49 0.66 0.45 0.41 0.40 0.49 0.49 0.37 0.54 0.36 0.31 0.31 0.30 0.29 0.27 0.26 0.24 0.23 0.26 0.24 0.23 0.27 0.33 0.41 0.56 0.74 0.96 1.21 1.46 1.88 2.33 2.63 2.72 2.64 2.52 2.47 2.43 2.46 2.51
0.28 0.23 0.26 0.30 0.31 0.37 0.49 0.38 0.37 0.38 0.44 0.41 0.30 0.40 0.37 0.28 0.32 0.31 0.30 0.27 0.25 0.24 0.26 0.29 0.30 0.32 0.34 0.34 0.38 0.50 0.65 0.87 1.12 1.34 1.71 2.11 2.41 2.63 2.78 2.61 2.48 2.50 2.53 2.56
0.24 0.19 0.20 0.25 0.28 0.31 0.38 0.39 0.36 0.36 0.42 0.47 0.23 0.34 0.45 0.30 0.26 0.27 0.25 0.24 0.25 0.27 0.31 0.37 0.46 0.50 0.49 0.42 0.45 0.54 0.63 0.77 0.93 1.08 1.30 1.54 1.88 2.16 2.51 2.50 2.43 2.55 2.54 2.47
0.26 0.23 0.20 0.21 0.27 0.30 0.35 0.51 0.64 0.64 0.62 0.43 0.19 0.33 0.47 0.33 0.25 0.25 0.26 0.26 0.26 0.30 0.35 0.43 0.57 0.62 0.63 0.54 0.49 0.51 0.64 0.70 0.77 0.88 0.98 1.14 1.39 1.57 1.95 2.27 2.25 2.17 2.23 2.29
0.28 0.29 0.19 0.18 0.21 0.26 0.29 0.46 0.71 0.79 0.68 0.46 0.33 0.49 0.54 0.38 0.31 0.27 0.26 0.29 0.33 0.36 0.42 0.59 0.75 0.77 0.76 0.67 0.57 0.55 0.67 0.72 0.73 0.78 0.82 0.91 1.05 1.16 1.33 1.56 1.68 1.71 1.78 2.01
0.28 0.25 0.17 0.16 0.16 0.17 0.24 0.31 0.36 0.51 0.49 0.51 0.51 0.60 0.54 0.34 0.32 0.33 0.34 0.38 0.49 0.57 0.62 0.74 0.89 0.91 0.82 0.75 0.66 0.63 0.69 0.80 0.80 0.81 0.82 0.91 0.96 0.98 1.09 1.12 1.27 1.46 1.50 1.57
0.30 0.27 0.17 0.16 0.16 0.15 0.16 0.22 0.36 0.56 0.70 0.70 0.57 0.60 0.58 0.45 0.44 0.42 0.47 0.52 0.64 0.74 0.81 0.89 1.03 1.05 0.90 0.77 0.67 0.64 0.68 0.81 0.99 1.11 1.05 0.99 1.05 1.12 1.34 1.37 1.21 1.20 1.39 1.46
0.40 0.37 0.20 0.17 0.17 0.19 0.21 0.31 0.45 0.59 0.60 0.82 0.92 0.83 0.65 0.62 0.63 0.65 0.66 0.72 0.80 0.91 0.92 0.90 0.99 1.06 0.94 0.74 0.66 0.61 0.63 0.74 0.88 0.92 0.98 0.97 1.01 1.10 1.38 1.60 1.55 1.36 1.37 1.41
0.37 0.49 0.33 0.21 0.21 0.24 0.29 0.41 0.61 0.90 0.84 0.78 0.95 0.94 0.70 0.63 0.66 0.68 0.67 0.66 0.71 0.83 0.84 0.86 0.90 0.86 0.77 0.62 0.54 0.50 0.51 0.63 0.75 0.74 0.80 0.88 0.89 0.97 1.09 1.21 1.24 1.18 1.11 1.09
0.46 0.64 0.62 0.50 0.49 0.40 0.47 0.50 0.57 0.74 0.85 0.87 1.00 0.97 0.67 0.58 0.53 0.55 0.57 0.60 0.63 0.64 0.64 0.64 0.65 0.62 0.60 0.58 0.55 0.49 0.49 0.56 0.64 0.67 0.73 0.80 0.82 0.84 0.86 0.87 0.80 0.84 0.87 0.95
0.46 0.54 0.63 0.70 0.69 0.66 0.63 0.53 0.48 0.67 0.91 0.85 0.85 0.80 0.65 0.57 0.53 0.54 0.56 0.57 0.60 0.54 0.47 0.46 0.48 0.49 0.53 0.54 0.53 0.49 0.47 0.54 0.63 0.78 0.85 0.90 0.90 0.89 0.89 0.87 0.83 0.82 0.85 0.90
0.35 0.37 0.33 0.32 0.33 0.44 0.48 0.42 0.41 0.49 0.57 0.72 0.72 0.69 0.56 0.52 0.56 0.59 0.56 0.51 0.49 0.43 0.37 0.37 0.37 0.40 0.40 0.41 0.43 0.43 0.42 0.49 0.57 0.70 0.82 0.86 0.88 0.90 0.86 0.80 0.78 0.82 0.79 0.78
0.23 0.27 0.24 0.22 0.22 0.29 0.36 0.37 0.38 0.38 0.43 0.54 0.60 0.59 0.46 0.43 0.41 0.42 0.39 0.33 0.32 0.33 0.28 0.26 0.26 0.28 0.27 0.27 0.28 0.29 0.37 0.46 0.51 0.60 0.71 0.87 0.90 0.82 0.78 0.71 0.70 0.73 0.72 0.69
0.21 0.30 0.38 0.32 0.27 0.29 0.53 0.53 0.53 0.55 0.49 0.49 0.43 0.35 0.22 0.23 0.25 0.28 0.29 0.29 0.32 0.29 0.24 0.21 0.21 0.22 0.23 0.24 0.28 0.31 0.38 0.47 0.47 0.54 0.68 0.87 0.85 0.73 0.67 0.72 0.77 0.74 0.72 0.73
0.18 0.31 0.43 0.37 0.39 0.68 0.86 0.62 0.60 0.56 0.35 0.21 0.15 0.14 0.13 0.18 0.18 0.17 0.19 0.21 0.24 0.22 0.18 0.17 0.16 0.15 0.16 0.18 0.24 0.27 0.30 0.34 0.38 0.44 0.55 0.71 0.72 0.69 0.72 0.71 0.69 0.65 0.61 0.60
0.19 0.33 0.47 0.41 0.45 0.68 0.67 0.43 0.35 0.35 0.25 0.10 0.08 0.09 0.11 0.13 0.13 0.10 0.12 0.13 0.13 0.13 0.10 0.09 0.09 0.08 0.08 0.07 0.10 0.13 0.15 0.18 0.23 0.30 0.40 0.51 0.54 0.58 0.59 0.57 0.58 0.54 0.50 0.52
0.32 0.40 0.59 0.55 0.66 0.68 0.36 0.19 0.17 0.24 0.31 0.10 0.05 0.05 0.05 0.07 0.11 0.08 0.06 0.07 0.08 0.07 0.06 0.04 0.03 0.03 0.03 0.03 0.05 0.06 0.09 0.12 0.16 0.22 0.29 0.38 0.41 0.44 0.46 0.50 0.53 0.52 0.49 0.48
0.31 0.41 0.51 0.55 0.76 0.62 0.25 0.12 0.13 0.25 0.33 0.12 0.04 0.03 0.03 0.03 0.05 0.04 0.05 0.05 0.06 0.05 0.04 0.03 0.03 0.02 0.02 0.03 0.04 0.04 0.08 0.11 0.12 0.14 0.19 0.26 0.34 0.41 0.48 0.53 0.54 0.57 0.54 0.49
0.36 0.39 0.40 0.48 0.63 0.58 0.24 0.17 0.21 0.22 0.12 0.06 0.03 0.03 0.02 0.02 0.02 0.02 0.03 0.03 0.05 0.05 0.04 0.03 0.03 0.03 0.03 0.04 0.04 0.03 0.06 0.08 0.09 0.10 0.15 0.23 0.31 0.40 0.47 0.55 0.58 0.57 0.57 0.56
0.38 0.39 0.41 0.50 0.63 0.44 0.26 0.23 0.21 0.16 0.11 0.06 0.03 0.02 0.02 0.01 0.01 0.01 0.02 0.03 0.04 0.05 0.04 0.04 0.04 0.03 0.03 0.03 0.04 0.04 0.04 0.05 0.05 0.07 0.11 0.17 0.21 0.25 0.31 0.40 0.49 0.54 0.56 0.57
0.23 0.23 0.28 0.37 0.36 0.23 0.21 0.19 0.14 0.11 0.08 0.04 0.02 0.01 0.02 0.02 0.02 0.01 0.02 0.02 0.03 0.03 0.04 0.04 0.04 0.04 0.03 0.02 0.03 0.04 0.03 0.03 0.04 0.06 0.09 0.11 0.13 0.13 0.15 0.25 0.32 0.39 0.46 0.52
0.19 0.19 0.23 0.29 0.29 0.19 0.13 0.13 0.10 0.08 0.06 0.03 0.02 0.01 0.01 0.02 0.02 0.02 0.02 0.02 0.02 0.03 0.03 0.03 0.03 0.04 0.04 0.03 0.03 0.04 0.04 0.04 0.05 0.05 0.06 0.07 0.08 0.10 0.12 0.17 0.25 0.30 0.38 0.40
0.12 0.17 0.24 0.31 0.27 0.22 0.12 0.09 0.08 0.07 0.05 0.03 0.02 0.01 0.01 0.01 0.01 0.01 0.01 0.02 0.02 0.03 0.03 0.04 0.04 0.04 0.04 0.04 0.03 0.05 0.06 0.06 0.09 0.10 0.07 0.07 0.08 0.10 0.12 0.15 0.17 0.17 0.20 0.21